DELTA 1 DEB, 10865

Orbit data source: Space-Track

DELTA 1 DEB, 10865 is space debris in SSO originally from a launch on Thu, 29 Jul 1976 UTC launched from the Air Force Western Test Range (AFWTR). Debris objects in space refer to the collection of defunct objects orbiting the Earth. Examples of debris include non-operational satellites, rocket bodies, and fragments generated from explosions, collisions, or faulty payload assembly.

Loading next visibility...
Identifier
10865, 1976-077CT
Orbit
SSO
Country
Flag of USUS
Related business
Manufacturer
Unknown
Mission
Spacecraft
Bus & Motor
Unknown
Mass
Unknown
Launch date (UTC)
1976-07-29 (50 years ago)
Launch vehicle
Unknown
Launch site
Air Force Western Test Range (AFWTR)
Object type
Payload
Rocket body
Debris
Shape & HBR
Unknown shape, 0.1 m
Radar Cross Section
Small (<0.1 m²)

Expand to show TLE details & history
Last TLE update: 22 hours ago

TLE from 22 hours ago
0 DELTA 1 DEB
1 10865U 76077CT  26127.32571522 -.00000019  00000-0  23881-3 0  9998
2 10865 102.3946  74.2752 0111356 223.7707 291.5819 12.20358951217897
Epoch: 2026-05-07T07:49Z
TLE epoch observation values (Epoch: 2026-05-07T07:49:01.795Z)
Latitude
25.22469°
Longitude
-82.24228°
Altitude
1,561.889 km
Speed
7.103 km/s
True Right ascension
17h 20m 45s
True Declination
25° 06' 21"
Sunlit
Object was in daylight at epoch
Visualization orbit readout
Latitude
Unknown
Longitude
Unknown
Altitude
Unknown
Speed
Unknown
Apparent Right ascension
Unknown
Apparent Declination
Unknown
Sunlit
N/A
Visualization observer readout
Local Sidereal Time
13:25:50
Azimuth
Unknown
Elevation
Unknown
Doppler factor
Unknown
Orbital elements
Apogee altitude
1,677.316 km
Perigee altitude
1,499.888 km
Semi-major axis
7,966.739 km
Eccentricity
0.01114
Inclination
102.3946°
RAAN
74.2752°
Arg. of periapsis
223.7707°
True anomaly
290.3893°
Mean anomaly
291.5819°
Eccentric anomaly
290.9862°
Mean motion
3.05227 °/min
Orbital period
117.95 mins
BSTAR
0.00023881
Loading maneuver chart data...
Computing Atmospheric mass density...
Loading historical data...
Loading historical data...
Loading historical data...
Loading historical data...
Loading historical data...
Loading historical data...
Loading historical data...

Documentation

Showing up to 5 results
|